Location: Chateh
(58.6667°N, 118.6000°W)
Time: 11:18:44
(UTC+00:00)

PCSat - Pass Details

Date: 10 December 2023
Orbit: 784 x 791 km, 67.0° (Epoch: 01 March)

Event Time Altitude Azimuth Distance (km) Brightness Sun altitude
Exits shadow 11:37:33 32° 65° (ENE) 1,348 11.1 -36.1°
Drops below altitude 10° 11:40:29 10° 51° (NE) 2,363 12.7 -35.7°
Sets 11:42:57 0° 47° (NE) 3,297 13.6 -35.4°
